Regional Weather Roundup
Issued by NWS

Home | Current Version | Previous Version | Graphics & Text | Print | Product List | Glossary On
Versions: 1 2 3 4 5 6 7 8 9 10 11 12 13 14 15 16 17 18 19 20 21 22 23 24 25 26 27 28 29 30 31 32 33 34 35 36 37 38 39 40 41 42 43 44 45 46 47 48 49 50
000
ASUS43 KOAX 310910
RWRNE

WEATHER ROUNDUP FOR NEBRASKA
NATIONAL WEATHER SERVICE OMAHA NE
300 AM CST SAT JAN 31 2015

NOTES: SATELLITE DATA IS BEING USED TO AUGMENT CLOUD COVER ABOVE
       12000 FEET.
       "FAIR" INDICATES FEW OR NO CLOUDS BELOW 12,000 FEET WITH NO
       SIGNIFICANT WEATHER AND/OR OBSTRUCTIONS TO VISIBILITY.

  * THESE STATIONS DO NOT REPORT WEATHER SUCH AS RAIN...SNOW OR FOG.

NEZ001>004-019>022-054>056-311000-
NEBRASKA PANHANDLE

CITY           SKY/WX    TMP DP  RH WIND       PRES   REMARKS
SCOTTSBLUFF    CLOUDY    33  26  75 CALM      30.02F
ALLIANCE       CLOUDY    28  26  92 N6        30.01F WCI  22
CHADRON        CLOUDY    27  24  89 CALM      30.05F
KIMBALL        CLOUDY    33  27  80 NW7       29.98S WCI  26
SIDNEY         CLOUDY    32  28  85 NW7       29.98F WCI  26
$$

NEZ057>060-069>072-079>082-311000-
SOUTHWEST NEBRASKA

CITY           SKY/WX    TMP DP  RH WIND       PRES   REMARKS
NORTH PLATTE   CLOUDY    35  32  88 S8        30.05F WCI  29
IMPERIAL       CLOUDY    34  32  92 SE8       30.00F WCI  27
LEXINGTON      MIX PCPN  35  32  91 S8        30.09F WCI  28
MCCOOK         LGT SNOW  34  32  92 SE6       30.07F FOG     WCI  29
OGALLALA       CLOUDY    35  33  90 E5        30.01F WCI  31
$$

NEZ005>010-023>029-035>040-094-311000-
NORTH CENTRAL NEBRASKA

CITY           SKY/WX    TMP DP  RH WIND       PRES   REMARKS
VALENTINE      CLOUDY    27  24  89 CALM      30.05S
AINSWORTH      CLOUDY    32  29  88 CALM      30.05F
BROKEN BOW     CLOUDY    36  33  89 S10       30.07F WCI  28
O`NEILL        CLOUDY    33  31  90 SW6       30.09S WCI  28
ORD            CLOUDY    34  30  85 S7        30.10F WCI  28
THEDFORD       CLOUDY    34  33  93 CALM      30.05S
$$

NEZ041-046>049-061>064-073>077-083>087-311000-
SOUTH CENTRAL NEBRASKA

CITY           SKY/WX    TMP DP  RH WIND       PRES   REMARKS
GRAND ISLAND   CLOUDY    36  32  85 S15       30.14F WCI  27
AURORA         CLOUDY    35  33  92 SW10      30.15F WCI  27
HASTINGS       MIX PCPN  33  31  92 S7        30.14F WCI  27
HEBRON         LGT RAIN  34  32  92 S8        30.20F WCI  28
HOLDREGE       LGT RAIN  33  32  97 S9        30.10F WCI  25
KEARNEY *      CLOUDY    34  30  86 S10       30.12F WCI  26
YORK           CLOUDY    36  32  87 SW10      30.17F WCI  28
$$

NEZ011>018-030>034-042>045-311000-
NORTHEAST NEBRASKA

CITY           SKY/WX    TMP DP  RH WIND       PRES   REMARKS
NORFOLK        CLOUDY    37  32  82 SW7       30.13F WCI  32
ALBION         CLOUDY    35  31  83 S6        30.13S WCI  30
BLAIR          CLOUDY    37  31  76 SW12      30.18F WCI  30
COLUMBUS *     CLOUDY    37  30  75 SW12      30.17F WCI  30
FREMONT        CLOUDY    38  33  80 S6        30.18F WCI  34
TEKAMAH        CLOUDY    34  28  79 S10       30.18F WCI  26
WAYNE          MOCLDY    33  29  85 S10       30.13F WCI  25
$$

NEZ050>053-065>068-078-088>093-311000-
SOUTHEAST NEBRASKA

CITY           SKY/WX    TMP DP  RH WIND       PRES   REMARKS
LINCOLN        CLOUDY    38  33  82 SW10      30.21F WCI  31
OMAHA EPPLEY   CLOUDY    32  26  78 SE8       30.21F WCI  25
BEATRICE       DRIZZLE   35  34  96 S8        30.22F WCI  28
FALLS CITY     LGT RAIN  37  32  82 SW9       30.26F WCI  30
NEBRASKA CITY  CLOUDY    38  32  80 SW16      30.23S WCI  29
PLATTSMOUTH    CLOUDY    36  29  78 S7        30.21F WCI  30
$$

NEZ044-045-051>053-067-311000-
OMAHA AREA

CITY           SKY/WX    TMP DP  RH WIND       PRES   REMARKS
OMAHA EPPLEY   CLOUDY    32  26  78 SE8       30.21F WCI  25
BLAIR          CLOUDY    37  31  76 SW12      30.18F WCI  30
FREMONT        CLOUDY    38  33  80 S6        30.18F WCI  34
MILLARD        CLOUDY    33  27  79 SE3       30.20F
OFFUTT AFB     CLOUDY    30  26  83 E3        30.21F
PLATTSMOUTH    CLOUDY    36  29  78 S7        30.21F WCI  30
WAHOO          FAIR      38  32  79 SW12      30.18F WCI  30
$$


USA.gov is the U.S. government's official web portal to all federal, state and local government web resources and services.